Location: Aragoneses
(41.0275°N, 4.3847°W)
Time: 22:21:09
(UTC+00:00)

NOSS 2-3 (C) - Pass Details

Date: 11 December 2025
Orbit: 458 x 1718 km, 63.3° (Epoch: 14 January)

Event Time Altitude Azimuth Distance (km) Brightness Sun altitude
Rises 18:18:15 0° 224° (SW) 2,547 7.8 -16.2°
Reaches altitude 10° 18:20:26 10° 229° (SW) 1,618 6.7 -16.6°
Maximum altitude 18:23:50 53° 308° (NW) 568 3.5 -17.2°
Enters shadow 18:25:35 25° 15° (NNE) 972 4.3 -17.5°
